Regional Weather Roundup
Issued by NWS Upton, NY

Home | Current Version | Previous Version | Text Only | Print | Product List | Glossary On
Versions: 1 2 3 4 5 6 7 8 9 10 11 12 13 14 15 16 17 18 19 20 21 22 23 24 25 26 27
000
ASUS41 KOKX 201705
RWROKX

Regional Weather Roundup
National Weather Service New York NY
100 PM EDT SUN MAY 20 2018

Note: "FAIR" indicates few or no clouds below 12,000 feet with no
significant weather and/or obstructions to visibility.

NYZ071-072-176-178-NJZ106-104-201800-
New York City Metro Area

CITY           SKY/WX    TMP DP  RH WIND       PRES   REMARKS
Central Park   FAIR      80  65  59 W8        29.95F
Bronx Bot Gard   N/A     79  63  57 NW5       29.94R
Bronx Lehman C   N/A     79  64  61 W9          N/A
LaGuardia Arpt PTSUNNY   82  63  52 W15G28    29.91F
Queens College   N/A     79  66  65 W13         N/A
Kennedy Intl   PTSUNNY   79  68  69 SW14      29.93F
Breezy Point     N/A     73 N/A N/A W10G17      N/A
Brooklyn Coll    N/A     81  66  61 SW14        N/A
Staten Island    N/A     81  66  61 W17         N/A
Newark/Liberty PTSUNNY   82  64  54 W20       29.93S
Teterboro      PTSUNNY   81  66  60 W14       29.91F
$$

NYZ177-179-078>081-201800-
Long Island New York

CITY           SKY/WX    TMP DP  RH WIND       PRES   REMARKS
Jones Beach      N/A     63 N/A N/A S10G16      N/A
Wantagh          N/A     70  63  78 SW8         N/A
Hempstead        N/A     77  68  73 SW6       29.95F
Matinecock Pt    N/A     66 N/A N/A SW14        N/A
Farmingdale    FAIR      75  66  73 S10       29.93F
MacArthur/ISP  PTSUNNY   73  65  75 SW14      29.93F
Stony Brook      N/A     77  68  73 W3          N/A
Shirley        CLOUDY    67  64  90 SW12G18   29.94F
Mt Sinai Harb    N/A     77 N/A N/A SW3         N/A
Westhampton    CLOUDY    64  59  83 SW14      29.96F
East Hampton   CLOUDY    64  60  89 SW9G18    29.93F
Southold         N/A     70  66  88 S10         N/A
Montauk          N/A     65  61  87 SW9G17    29.94F
$$

NYZ052-065-067-201800-
Hudson Valley

CITY           SKY/WX    TMP DP  RH WIND       PRES   REMARKS
White Plains   FAIR      76  65  68 W16G23    29.92S
Larchmont Harb   N/A     77 N/A N/A SW17        N/A
Croton On Huds   N/A     73 N/A N/A NW1         N/A
Somers           N/A     75  66  73 W6          N/A
Brewster         N/A     73  64  73 W5          N/A
Newburgh       CLOUDY    73  68  83 W14       29.93F
Montgomery     PTSUNNY   76  66  71 W9        29.91F
Otisville        N/A     73  64  73 W6          N/A
Warwick          N/A     73  68  83 W12         N/A
Suffern          N/A     75  64  69 W10         N/A
Poughkeepsie   PTSUNNY   78  66  66 W8        29.89F
Albany         CLOUDY    71  65  81 W10       29.90R
$$

NJZ001-105-106-008-010-013-015-019>022-104-201800-
New Jersey

CITY           SKY/WX    TMP DP  RH WIND       PRES   REMARKS
Newark/Liberty PTSUNNY   82  64  54 W20       29.93S
Teterboro      PTSUNNY   81  66  60 W14       29.91F
Caldwell       PTSUNNY   78  65  63 W12       29.94S
Somerville     CLOUDY    77  66  68 VRB7      29.94S
Linden         FAIR      80  66  63 W14G22    29.93F
Perth Amboy      N/A     77 N/A N/A W17G23      N/A
Sussex         CLOUDY    77  67  71 SW8G18    29.94F
Andover          N/A     74  66  76 VRB7      29.96F
Trenton        PTSUNNY   82  66  58 W13G22    29.96F
Millville      PTSUNNY   80  68  66 W12       30.00S
Atlantic City  FAIR      83  70  64 SW10      29.98F
Wrightstown    FAIR      81  67  62 W16       29.94
Toms River     CLOUDY    82  68  62 W16G22    29.97
Belmar         PTSUNNY   81  67  62 W15G24    29.96F
$$

PAZ047>061-062-071-201800-
Eastern Pennsylvania

CITY           SKY/WX    TMP DP  RH WIND       PRES   REMARKS
Philadelphia   PTSUNNY   80  67  64 SW12      29.97F
Allentown      CLOUDY    75  65  70 SW9       29.98F
Scranton       CLOUDY    69  63  81 SW9       29.98F
$$

CTZ002-004>006-009-010-012-RIZ004-006-007-MAZ004-011-015-201800-
Southern New England

 In CT

CITY           SKY/WX    TMP DP  RH WIND       PRES   REMARKS
Bradley Intl   PTSUNNY   78  64  61 W14       29.87F
Hartford       CLOUDY    77  66  68 SW9       29.88S
Danbury        CLOUDY    75  67  76 SW15      29.93S
Wtrbury/Oxford PTSUNNY   75  66  73 W12G20    29.92F
Norwalk Harbor   N/A     63 N/A N/A SW14        N/A
Bridgeport     PTSUNNY   72  65  78 SW12      29.91F
Meriden        CLOUDY    76  66  71 VRB6      29.89F
New Haven      PTSUNNY   73  67  81 SW12G17   29.90F HAZE
Chester        CLOUDY    75  70  83 SW10      29.92S
Groton         CLOUDY    65  63  93 SW7       29.91F FOG
Willimantic    CLOUDY    75  66  73 SW12      29.89F

 In RI

CITY           SKY/WX    TMP DP  RH WIND       PRES   REMARKS
Providence     CLOUDY    72  66  81 SW7       29.89F
Block Island   LGT RAIN  58  56  93 SW20G25   29.93F FOG
Westerly       CLOUDY    63  60  90 SW10      29.92F

In MA

CITY           SKY/WX    TMP DP  RH WIND       PRES   REMARKS
Boston         PTSUNNY   78  66  66 SW18      29.83F
Worcester      PTSUNNY   73  64  73 SW17G24   29.88S
Westfield      CLOUDY    77  64  64 W13G21    29.86S
Provincetown   NOT AVBL
Nantucket      FOG       57  57 100 SW20G26   29.94F VSB 1/4
$$

ANZ330-335-338-340-345-350-353-355-201800-
Coastal Marine Observations


STATION/POSITION TIME  SKY/WX   TEMP    WIND        PRES    VSBY  WAVE
                                AIR SEA DIR/SP/G                  HT/PER
                 (UTC)          (F)     (DEG/KT/KT) (MB)    (MI)  (FT/S)
NY Harb Entrance 1650            58 53  200/ 14/ 16 1013.8          4/ 6
20 S Fire Island 1650            56 51  220/ 16/ 17 1014.3          5/ 6
23 SSW Montauk P 1650            55 51  220/ 17/ 19 1014.0          5/ 6
15 E Barnegat Li 1630               54                N/A           5/ 6
Hudson Canyon    1650            57 51  220/ 16/ 19 1015.7          5/ 6
Kings Point      1648            73 56  300/ 10/ 13 1014.2
Execution Rocks  NOT AVBL
Western LI Sound NOT AVBL
Central LI Sound 1600            58     200/  8/ 10   N/A           1
Robbins Reef     1648            78     260/ 16/ 19 1013.9
$$


>>>>>>>>>>>>>>>>>>>>>>>>>>>> KEY <<<<<<<<<<<<<<<<<<<<<<<<<<<
>                                                          <
>     SKY/WX - Sky Condition/Present Weather               <
>     TMP    - Temperature in Fahrenheit                   <
>     DP     - Dew Point in Fahrenheit                     <
>     RH     - Relative Humidity in Percent                <
>     WIND   - Direction (from) and Speed in MPH           <
>     PRES   - Mean Sea Level Pressure (inches of Hg)      <
>     WCI    - Wind Chill Index                            <
>     VSB    - Visibility in Miles                         <
>     HX     - Heat Index                                  <
>     TC     - Temperature in Celsius                      <
>     VRB    - Varibale Wind Direction                     <
>                                                          <
>>>>>>>>>>>>>>>>>>>>>>>>>>>> KEY <<<<<<<<<<<<<<<<<<<<<<<<<<<




USA.gov is the U.S. government's official web portal to all federal, state and local government web resources and services.